Location: Oshawa
(43.9000°N, 78.8670°W)
Time: 23:47:36
(UTC-04:00)

CARTOSAT-1 - Pass Details

Date: 25 August 2017
Orbit: 616 x 621 km, 97.9° (Epoch: 25 September)

Event Time Altitude Azimuth Distance (km) Brightness Sun altitude
Exits shadow 22:41:25 36° 39° (NE) 998 4.6 -25.2°
Drops below altitude 10° 22:44:33 10° 1° (N) 1,996 6.7 -25.6°
Sets 22:46:49 0° 355° (N) 2,906 7.8 -25.9°
